TimeCST,TemperatureF,Dew PointF,Humidity,Sea Level PressureIn,VisibilityMPH,Wind Direction,Wind SpeedMPH,Gust SpeedMPH,PrecipitationIn,Events,Conditions,WindDirDegrees,DateUTC
12:53 AM,24.1,19.0,81,30.03,10.0,Calm,Calm,-,N/A,,Clear,0,2012-12-07 06:53:00
1:53 AM,24.1,19.9,84,30.02,10.0,Calm,Calm,-,N/A,,Overcast,0,2012-12-07 07:53:00
2:53 AM,23.0,19.9,88,30.03,10.0,Calm,Calm,-,N/A,,Overcast,0,2012-12-07 08:53:00
3:53 AM,25.0,19.9,81,30.01,10.0,Calm,Calm,-,N/A,,Overcast,0,2012-12-07 09:53:00
4:53 AM,25.0,21.0,85,30.01,10.0,South,4.6,-,N/A,,Overcast,180,2012-12-07 10:53:00
5:53 AM,28.4,21.2,74,29.98,10.0,SSW,5.8,-,N/A,,Overcast,200,2012-12-07 11:53:00
6:53 AM,30.0,24.1,79,30.05,5.0,SSW,10.4,-,0.00,Snow,Light Snow,200,2012-12-07 12:53:00
7:07 AM,28.4,24.8,86,29.99,2.5,SSW,6.9,-,0.00,Snow,Light Snow,200,2012-12-07 13:07:00
7:25 AM,28.4,26.6,93,30.00,1.5,SSW,5.8,-,0.01,Snow,Light Snow,200,2012-12-07 13:25:00
7:33 AM,28.4,26.6,93,30.00,1.2,SSW,5.8,-,0.01,Snow,Light Snow,200,2012-12-07 13:33:00
7:53 AM,28.9,26.1,89,30.06,1.2,South,4.6,-,0.02,Snow,Light Snow,190,2012-12-07 13:53:00
8:35 AM,28.4,26.6,93,30.00,0.5,SE,3.5,-,0.02,Fog-Snow,Light Snow,130,2012-12-07 14:35:00
8:53 AM,28.9,27.0,92,30.05,0.5,SE,5.8,-,0.03,Fog-Snow,Light Snow,140,2012-12-07 14:53:00
9:39 AM,28.4,26.6,93,30.00,0.8,SSE,5.8,-,0.02,Snow,Light Snow,160,2012-12-07 15:39:00
9:53 AM,28.9,27.0,92,30.06,0.8,SSE,6.9,-,0.02,Snow,Light Snow,160,2012-12-07 15:53:00
10:53 AM,30.0,28.0,92,30.05,0.8,SE,3.5,-,0.03,Snow,Light Snow,140,2012-12-07 16:53:00
11:00 AM,30.2,28.4,93,30.00,1.0,SE,4.6,-,0.00,Snow,Light Snow,140,2012-12-07 17:00:00
11:07 AM,30.2,28.4,93,30.00,1.0,SE,4.6,-,0.00,Snow,Light Snow,130,2012-12-07 17:07:00
11:53 AM,30.0,28.0,92,30.04,1.0,East,4.6,-,0.02,Snow,Light Snow,100,2012-12-07 17:53:00
12:00 PM,30.2,28.4,93,29.98,0.8,ESE,5.8,-,0.00,Snow,Light Snow,110,2012-12-07 18:00:00
12:07 PM,30.2,28.4,93,29.98,0.8,ESE,5.8,-,0.00,Snow,Light Snow,110,2012-12-07 18:07:00
12:19 PM,30.2,28.4,93,29.98,0.8,East,6.9,-,0.00,Snow,Light Snow,100,2012-12-07 18:19:00
12:35 PM,30.2,28.4,93,29.97,1.0,ESE,4.6,-,0.01,Snow,Light Snow,110,2012-12-07 18:35:00
12:53 PM,30.9,28.0,89,30.02,1.2,ESE,6.9,-,0.01,Snow,Light Snow,120,2012-12-07 18:53:00
1:03 PM,30.2,28.4,93,29.97,1.8,East,5.8,-,0.00,Snow,Light Snow,100,2012-12-07 19:03:00
1:31 PM,30.2,28.4,93,29.96,1.2,ESE,6.9,-,0.01,Snow,Light Snow,110,2012-12-07 19:31:00
1:42 PM,30.2,28.4,93,29.96,1.8,ESE,4.6,-,0.01,Snow,Light Snow,120,2012-12-07 19:42:00
1:53 PM,30.9,28.0,89,30.02,1.8,ESE,3.5,-,0.01,Snow,Light Snow,120,2012-12-07 19:53:00
2:05 PM,30.2,28.4,93,29.97,1.2,SE,3.5,-,0.00,Snow,Light Snow,130,2012-12-07 20:05:00
2:28 PM,30.2,28.4,93,29.97,0.8,ESE,3.5,-,0.01,Snow,Light Snow,110,2012-12-07 20:28:00
2:46 PM,30.2,28.4,93,29.97,1.0,SE,3.5,-,0.02,Snow,Light Snow,130,2012-12-07 20:46:00
2:53 PM,30.9,28.0,89,30.02,1.2,Calm,Calm,-,0.02,Snow,Light Snow,0,2012-12-07 20:53:00
3:11 PM,30.2,28.4,93,29.97,0.8,East,3.5,-,0.00,Snow,Light Snow,90,2012-12-07 21:11:00
3:42 PM,30.2,28.4,93,29.97,0.8,Calm,Calm,-,0.01,Snow,Light Snow,0,2012-12-07 21:42:00
3:53 PM,30.9,28.0,89,30.03,1.0,Calm,Calm,-,0.02,Snow,Light Snow,0,2012-12-07 21:53:00
4:03 PM,30.2,28.4,93,29.98,1.2,Calm,Calm,-,0.00,Snow,Light Snow,0,2012-12-07 22:03:00
4:11 PM,30.2,28.4,93,29.98,1.2,Calm,Calm,-,0.00,Snow,Light Snow,0,2012-12-07 22:11:00
4:19 PM,30.2,28.4,93,29.98,1.5,Calm,Calm,-,0.00,Snow,Light Snow,0,2012-12-07 22:19:00
4:21 PM,30.2,28.4,93,29.98,1.2,Calm,Calm,-,0.00,Snow,Light Snow,0,2012-12-07 22:21:00
4:33 PM,30.2,28.4,93,29.98,0.8,Calm,Calm,-,0.01,Snow,Light Snow,0,2012-12-07 22:33:00
4:40 PM,30.2,28.4,93,29.99,1.0,Calm,Calm,-,0.01,Snow,Light Snow,0,2012-12-07 22:40:00
4:53 PM,30.9,28.9,92,30.04,1.0,Calm,Calm,-,0.01,Snow,Light Snow,0,2012-12-07 22:53:00
5:04 PM,30.2,28.4,93,29.99,1.8,Calm,Calm,-,0.00,Snow,Light Snow,0,2012-12-07 23:04:00
5:32 PM,30.2,28.4,93,29.99,1.2,Calm,Calm,-,0.01,Snow,Light Snow,0,2012-12-07 23:32:00
5:48 PM,30.2,28.4,93,29.99,1.5,Calm,Calm,-,0.02,Snow,Light Snow,0,2012-12-07 23:48:00
5:53 PM,30.9,28.0,89,30.04,1.5,Calm,Calm,-,0.02,Snow,Light Snow,0,2012-12-07 23:53:00
6:04 PM,30.2,28.4,93,30.00,1.2,Calm,Calm,-,0.00,Snow,Light Snow,0,2012-12-08 00:04:00
6:29 PM,30.2,28.4,93,30.00,1.5,ENE,3.5,-,0.01,Snow,Light Snow,70,2012-12-08 00:29:00
6:46 PM,26.6,23.0,86,30.01,2.0,NE,6.9,-,0.01,Snow,Light Snow,40,2012-12-08 00:46:00
6:53 PM,26.6,21.2,80,30.01,3.0,NE,9.2,-,N/A,Snow,Light Snow,40,2012-12-08 00:53:00
7:53 PM,24.8,19.4,80,30.01,2.5,NNE,8.1,-,N/A,Snow,Light Snow,30,2012-12-08 01:53:00
8:02 PM,23.0,19.4,86,30.01,3.0,NNE,8.1,-,0.00,Snow,Light Snow,30,2012-12-08 02:02:00
8:53 PM,21.9,19.0,89,30.06,7.0,NE,6.9,-,0.01,,Overcast,40,2012-12-08 02:53:00
9:53 PM,21.9,18.0,85,30.06,8.0,NNE,5.8,-,N/A,,Overcast,30,2012-12-08 03:53:00
10:53 PM,21.9,18.0,85,30.04,8.0,NE,4.6,-,N/A,,Overcast,40,2012-12-08 04:53:00
11:53 PM,21.9,19.0,89,30.04,8.0,NE,5.8,-,N/A,,Overcast,50,2012-12-08 05:53:00